Flag for U.S.A. Weather past 2 weeks in Washington DC, District of Columbia, U.S.A.

Now
69 °F

Scattered clouds.


Feels Like: 69 °F
Forecast: 55 / 75 °F
Wind: 5 mph from Northeast

Location: Reagan National Airport

Current Time: Sep 17, 2014 at 10:33:04 AM

Latest Report: Sep 17, 2014 at 9:52 AM


Visibility: 10 mi

Pressure: 30.07 "Hg

Humidity: 59%

Dew point: 54 °F

Location of Washington DCLocation

Historic Weather in Washington DC — Graph

°F

Washington DC temperature yesterday

Maximum temperature yesterday: 80 °F (at 12:52 PM)
Minimum temperature yesterday: 65 °F (at 11:52 PM)
Average temperature yesterday: 72 °F

Past Weeks' High & Low Weather Summary

 TemperatureHumidityPressure
High95 °F (Sep 2, 3:52 PM)85% (Sep 5, 6:52 AM)30.33 "Hg (Sep 5, 6:52 AM)
Low56 °F (Sep 14, 5:52 AM)31% (Sep 7, 4:52 PM)29.86 "Hg (Sep 2, 6:52 PM)
Average75 °F62%30.09 "Hg
* Reported Sep 2 8:52 AM — Sep 17 8:52 AM, Washington DC, Weather by CustomWeather, © 2014

Note: Actual official high and low records may vary slightly from our data, if they occured in-between our weather recording intervals... More about our weather records

Advertising

Washington DC weather history for previous 24 hours

 ConditionsComfort  
Time TempWeatherWind HumidityBarometerVisibility
8:52 AM
Sep 17
65 °FScattered clouds.7 mph66%30.07 "Hg10 mi
7:52 AM62 °FScattered clouds.3 mph70%30.07 "Hg10 mi
6:52 AM59 °FPassing clouds.5 mph75%30.06 "Hg10 mi
5:52 AM59 °FClear.6 mph75%30.04 "Hg10 mi
4:52 AM60 °FClear.6 mph72%30.04 "Hg10 mi
3:52 AM60 °FPassing clouds.6 mph72%30.04 "Hg10 mi
2:52 AM62 °FPassing clouds.6 mph67%30.04 "Hg10 mi
1:52 AM63 °FPassing clouds.5 mph68%30.05 "Hg10 mi
12:52 AM64 °FPassing clouds.6 mph63%30.05 "Hg10 mi
11:52 PM
Sep 16
65 °FPassing clouds.6 mph63%30.04 "Hg10 mi
10:52 PM67 °FPassing clouds.5 mph59%30.04 "Hg10 mi
9:52 PM68 °FPassing clouds.6 mph57%30.03 "Hg10 mi
8:52 PM71 °FPassing clouds.10 mph49%30.02 "Hg10 mi
7:52 PM72 °FScattered clouds.13 mph48%30.01 "Hg10 mi
6:52 PM75 °FScattered clouds.13 mph40%29.99 "Hg10 mi
5:52 PM77 °FScattered clouds.14 mph39%29.99 "Hg10 mi
4:52 PM79 °FScattered clouds.13 mph35%29.99 "Hg10 mi
3:52 PM77 °FPartly sunny.15 mph37%30.00 "Hg10 mi
2:52 PM79 °FPartly sunny.12 mph38%30.00 "Hg10 mi
1:52 PM76 °FScattered clouds.14 mph43%30.01 "Hg10 mi
12:52 PM80 °FScattered clouds.17 mph41%30.02 "Hg10 mi
11:52 AM77 °FScattered clouds.10 mph44%30.03 "Hg10 mi
10:52 AM77 °FScattered clouds.15 mph47%30.04 "Hg10 mi
Weather by CustomWeather, © 2014

See weather overviewHow to use our weather pages